Notices

What's New in latest Release from April 7th, 2021:

- Updated Glossary, including Speed of Maximum Gust, and Total Hourly Precipitation

- Updated national and regional climate services offices contacts and prices information

- Addition of station inventory lists for 1981-2010, 1971-2000, and 1961-1990 Normals.

If you haven't already, please take our survey and provide feedback about our website: https://eccc.sondage-survey.ca/f/LanguageSelection.aspx?s=442ca660-fcf1-47c0-95a9-59707d6fd709

Hourly Data Report for April 18, 2021

OTTAWA INTL A
ONTARIO
Current Station Operator: NAVCAN

45°19'00.000" N
75°40'00.000" W
114.90 m
6106001
71628
YOW

Download Data

Hourly Data (April 2021)
Hourly Data Report for April 18, 2021
TIME
LST
Temp Definition
°C
Dew Point Definition
°C
Rel Hum Definition
%
Precip. Amount Definition
mm

Wind Dir Definition
10's deg

Wind Spd Definition
km/h
Visibility Definition
km
Stn Press Definition
kPa
Hmdx Definition


Wind Chill Definition


Weather Definition


00:00 6.4 3.9 84   17 5 24.1 99.47     LegendNANA
01:00 5.9 4.0 88   36 3 24.1 99.44     Mostly Cloudy
02:00 5.0 3.8 92   12 7 24.1 99.40     LegendNANA
03:00 5.1 4.0 92   13 10 24.1 99.41     LegendNANA
04:00 5.1 3.6 90   16 12 24.1 99.40     Cloudy
05:00 4.0 2.8 92   13 8 24.1 99.38     LegendNANA
06:00 5.2 4.0 92   6 8 24.1 99.45     LegendNANA
07:00 5.5 4.3 91   10 10 24.1 99.46     Cloudy
08:00 6.2 4.7 90   4 3 16.1 99.50     LegendNANA
09:00 6.8 5.4 91   11 3 12.9 99.52     LegendNANA
10:00 8.1 5.6 84   7 7 19.3 99.52     Cloudy
11:00 9.8 6.1 77   6 7 24.1 99.51     LegendNANA
12:00 11.9 6.5 70   7 9 24.1 99.48     LegendNANA
13:00 13.2 5.8 61   9 8 24.1 99.44     Mainly Clear
14:00 15.6 4.1 46   34 14 24.1 99.39     LegendNANA
15:00 13.4 2.2 47   23 4 24.1 99.37     LegendNANA
16:00 13.8 5.1 55   22 16 24.1 99.40     Mostly Cloudy
17:00 11.4 5.1 65   22 9 24.1 99.44     LegendNANA
18:00 11.1 4.7 64   3 6 24.1 99.49     LegendNANA
19:00 9.6 4.8 72   10 9 24.1 99.50     Mostly Cloudy
20:00 9.2 5.3 76   20 7 24.1 99.59     LegendNANA
21:00 8.8 5.9 82   17 9 24.1 99.57     LegendNANA
22:00 8.4 6.1 85   17 8 24.1 99.53     Cloudy
23:00 8.3 6.1 86   19 10 24.1 99.54     LegendNANA

Notes on Data Quality.

Legend

  • E = Estimated
  • M = Missing
  • NA = Not Available*
  • [empty] = Indicates an unobserved value
Date modified: